Station CAPL1 - 8768094 - Calcasieu Pass, LA Image indicating link to RSS feed of recent meteorological observations for station CAPL1


Conditions at CAPL1 as of
(3:00 pm CDT)
2000 GMT on 04/16/2024:
     

Click on the graph icon in the table below to see a time series plot of the last five days of that observation.

5-day plot - Wind Direction Wind Direction (WDIR):SSE ( 150 deg true )
5-day plot - Wind Speed Wind Speed (WSPD): 12.0 kts
5-day plot - Wind Gust Wind Gust (GST): 15.0 kts
5-day plot - Atmospheric Pressure Atmospheric Pressure (PRES):29.96 in
5-day plot - Pressure Tendency Pressure Tendency (PTDY):-0.03 in ( Falling )
5-day plot - Air Temperature Air Temperature (ATMP): 76.1 °F
5-day plot - Water Temperature Water Temperature (WTMP): 74.8 °F
5-day plot - Wind Speed at 10 Meters Wind Speed at 10 meters (WSPD10M): 11.7 kts
5-day plot - Wind Speed at 20 Meters Wind Speed at 20 meters (WSPD20M): 11.7 kts
5-day plot -  Wind Speed, Wind Gust and Atmospheric Pressure Combined plot of Wind Speed, Gust, and Air Pressure
NOS Water Level Observation Network Water Level
Previous observations
TIME
(CDT)
5-day plot - Wind Direction
WDIR
 
5-day plot - Wind Speed
WSPD
kts
5-day plot - Wind Gust
GST
kts
5-day plot - Wave Height
WVHT
ft
5-day plot - Dominant Wave Period
DPD
sec
5-day plot - Average Wave Period
APD
sec
5-day plot - Mean Wave Direction
MWD
 
5-day plot - Atmospheric Pressure
PRES
in
5-day plot - Pressure Tendency
PTDY
in
5-day plot - Air Temperature
ATMP
°F
5-day plot - Water Temperature
WTMP
°F
5-day plot - Dew Point
DEWP
°F
5-day plot - Salinity
SAL
psu
5-day plot - Visibility
VIS
nmi
5-day plot - Tide (above MLLW)
TIDE
ft
2024-04-16 02:54 pmSSE 13.0 17.1----29.97- 75.6 74.8----
2024-04-16 02:48 pmSSE 13.0 15.9----29.97- 75.6 74.8----
2024-04-16 02:42 pmSSE 13.0 17.1----29.97- 75.7 74.8----
2024-04-16 02:36 pmSSE 12.0 15.9----29.98- 75.9 74.8----
2024-04-16 02:30 pmSSE 12.0 17.1----29.98- 75.6 74.7----
2024-04-16 02:24 pmSSE 14.0 17.1----29.98- 76.1 74.7----
2024-04-16 02:18 pmSSE 13.0 17.1----29.98- 76.1 74.8----
2024-04-16 02:12 pmSSE 12.0 15.9----29.98- 76.3 74.8----
2024-04-16 02:06 pmSSE 13.0 17.1----29.98- 75.7 74.8----
2024-04-16 02:00 pmSSE 11.1 15.9----29.98+0.00 75.9 74.8----
2024-04-16 01:54 pmSSE 13.0 15.9----29.98- 75.7 74.7----
2024-04-16 01:48 pmSSE 13.0 15.9----29.99- 75.7 74.8----
2024-04-16 01:42 pmSSE 11.1 15.9----29.98- 76.1 74.8----
2024-04-16 01:36 pmSSE 12.0 15.9----29.99- 75.9 74.8----
2024-04-16 01:30 pmSSE 12.0 15.9----29.99- 75.9 74.7----
2024-04-16 01:24 pm SE 12.0 15.9----29.99- 76.1 74.7----
2024-04-16 01:18 pmSSE 13.0 15.9----29.99- 75.7 74.7----
2024-04-16 01:12 pmSSE 9.9 15.0----29.99- 76.1 74.7----
2024-04-16 01:06 pmSSE 12.0 15.9----29.99- 75.9 74.7----
2024-04-16 01:00 pmSSE 13.0 15.9----29.99+0.03 75.4 74.7----
2024-04-16 12:54 pmSSE 13.0 15.0----29.99- 75.4 74.5----
2024-04-16 12:48 pmSSE 12.0 14.0----30.00- 75.7 74.5----
2024-04-16 12:42 pmSSE 12.0 15.0----30.00- 75.6 74.5----
2024-04-16 12:36 pmSSE 12.0 15.9----30.00- 75.4 74.5----
2024-04-16 12:30 pmSSE 12.0 15.0----30.00- 75.2 74.5----
2024-04-16 12:24 pmSSE 11.1 14.0----30.00- 75.2 74.3----
2024-04-16 12:18 pmSSE 11.1 14.0----30.00- 75.4 74.3----
2024-04-16 12:12 pmSSE 9.9 14.0----30.00- 75.4 74.3----
2024-04-16 12:06 pmSSE 8.9 14.0----30.00- 75.6 74.3----
2024-04-16 12:00 pmSSE 11.1 15.0----29.99+0.04 75.0 74.3----
2024-04-16 11:54 amSSE 11.1 14.0----29.99- 75.0 74.3----
2024-04-16 11:48 amSSE 12.0 15.9----29.99- 75.0 74.3----
2024-04-16 11:42 amSSE 12.0 14.0----29.99- 74.8 74.3----
2024-04-16 11:36 amSSE 9.9 13.0----29.99- 74.8 74.3----
2024-04-16 11:30 amSSE 8.9 12.0----29.99- 75.4 74.3----
2024-04-16 11:24 amSSE 9.9 12.0----29.99- 74.8 74.3----
2024-04-16 11:18 amSSE 11.1 13.0----29.99- 74.7 74.1----
2024-04-16 11:12 amSSE 9.9 14.0----29.99- 75.0 74.1----
2024-04-16 11:06 amSSE 9.9 13.0----29.99- 74.8 74.1----
2024-04-16 11:00 amSSE 9.9 12.0----29.99+0.05 74.8 73.9----
2024-04-16 10:54 amSSE 9.9 12.0----29.98- 74.7 73.9----
2024-04-16 10:48 amSSE 9.9 12.0----29.98- 74.5 73.8----
2024-04-16 10:42 amSSE 8.9 12.0----29.98- 74.8 73.6----
2024-04-16 10:36 amSSE 8.9 13.0----29.98- 74.7 73.6----
2024-04-16 10:30 amSSE 9.9 14.0----29.98- 74.8 73.6----
2024-04-16 10:24 amSSE 8.9 13.0----29.98- 74.8 73.6----
2024-04-16 10:18 amSSE 8.9 12.0----29.97- 74.7 73.6----
2024-04-16 10:12 amSSE 8.9 14.0----29.97- 74.8 73.4----
2024-04-16 10:06 amSSE 11.1 14.0----29.96- 74.3 73.4----
2024-04-16 10:00 amSSE 11.1 14.0----29.96+0.04 74.5 73.4----
2024-04-16 09:54 amSSE 12.0 15.0----29.96- 74.3 73.4----
2024-04-16 09:48 amSSE 11.1 14.0----29.96- 74.5 73.4----
2024-04-16 09:42 amSSE 13.0 15.0----29.96- 74.1 73.4----
2024-04-16 09:36 amSSE 11.1 15.9----29.96- 74.5 73.4----
2024-04-16 09:30 amSSE 13.0 15.0----29.96- 74.3 73.4----
2024-04-16 09:24 amSSE 12.0 15.9----29.96- 74.3 73.4----
2024-04-16 09:18 amSSE 13.0 15.9----29.96- 74.1 73.4----
2024-04-16 09:12 amSSE 13.0 15.9----29.95- 73.9 73.4----
2024-04-16 09:06 amSSE 12.0 15.0----29.96- 74.1 73.4----
2024-04-16 09:00 amSSE 12.0 17.1----29.95+0.01 73.9 73.4----
2024-04-16 08:54 amSSE 12.0 17.1----29.95- 73.9 73.2----
2024-04-16 08:48 amSSE 13.0 15.9----29.95- 73.9 73.2----
2024-04-16 08:42 amSSE 11.1 14.0----29.95- 73.8 73.2----
2024-04-16 08:36 amSSE 11.1 14.0----29.95- 73.8 73.2----
2024-04-16 08:30 amSSE 11.1 14.0----29.95- 73.8 73.2----
2024-04-16 08:24 amSSE 12.0 15.0----29.95- 73.8 73.2----
2024-04-16 08:18 amSSE 12.0 15.0----29.94- 73.9 73.2----
2024-04-16 08:12 amSSE 13.0 15.0----29.94- 73.8 73.2----
2024-04-16 08:06 amSSE 11.1 15.0----29.94- 73.8 73.2----
2024-04-16 08:00 amSSE 11.1 15.0----29.94+0.05 73.8 73.2----
2024-04-16 07:54 amSSE 13.0 15.0----29.93- 73.8 73.4----
2024-04-16 07:48 am S 13.0 15.9----29.94- 73.6 73.4----
2024-04-16 07:42 amSSE 12.0 15.9----29.93- 73.6 73.4----
2024-04-16 07:36 amSSE 13.0 15.9----29.93- 73.6 73.4----
2024-04-16 07:30 amSSE 13.0 18.1----29.93- 73.6 73.4----
2024-04-16 07:24 amSSE 14.0 18.1----29.93- 73.4 73.4----
2024-04-16 07:18 amSSE 12.0 17.1----29.93- 73.6 73.4----
2024-04-16 07:12 amSSE 12.0 15.9----29.93- 73.6 73.4----
2024-04-16 07:06 amSSE 12.0 15.9----29.93- 73.6 73.4----
2024-04-16 07:00 amSSE 14.0 17.1----29.93+0.07 73.6 73.4----
2024-04-16 06:54 am S 13.0 17.1----29.93- 73.6 73.4----
2024-04-16 06:48 amSSE 13.0 15.9----29.92- 73.6 73.4----
2024-04-16 06:42 am S 13.0 17.1----29.93- 73.6 73.6----
2024-04-16 06:36 am S 13.0 15.0----29.93- 73.6 73.6----
2024-04-16 06:30 amSSE 12.0 15.9----29.92- 73.6 73.6----
2024-04-16 06:24 am S 12.0 15.0----29.93- 73.6 73.6----
2024-04-16 06:18 am S 12.0 15.0----29.93- 73.6 73.6----
2024-04-16 06:12 am S 11.1 14.0----29.93- 73.6 73.6----
2024-04-16 06:06 am S 12.0 14.0----29.94- 73.6 73.6----
2024-04-16 06:00 am S 12.0 14.0----29.93+0.04 73.4 73.6----
2024-04-16 05:54 am S 15.0 17.1----29.92- 73.4 73.6----
2024-04-16 05:48 am S 13.0 19.0----29.91- 73.4 73.6----
2024-04-16 05:42 am S 14.0 18.1----29.90- 73.4 73.6----
2024-04-16 05:36 am S 15.9 19.0----29.90- 73.4 73.6----
2024-04-16 05:30 am S 17.1 20.0----29.90- 73.4 73.6----
2024-04-16 05:24 am S 12.0 19.0----29.90- 73.4 73.6----
2024-04-16 05:18 am S 15.9 20.0----29.90- 73.2 73.6----
2024-04-16 05:12 am S 15.9 19.0----29.90- 73.2 73.8----
2024-04-16 05:06 am S 12.0 18.1----29.89- 73.4 73.8----
2024-04-16 05:00 am S 15.0 20.0----29.89-0.06 73.2 73.8----
2024-04-16 04:54 amSSE 14.0 18.1----29.89- 73.2 73.8----
2024-04-16 04:48 am S 13.0 19.0----29.89- 73.2 73.8----
2024-04-16 04:42 amSSE 13.0 19.0----29.89- 73.2 73.8----
2024-04-16 04:36 amSSE 13.0 19.0----29.88- 73.0 73.8----
2024-04-16 04:30 amSSE 15.0 20.0----29.88- 73.2 73.8----
2024-04-16 04:24 amSSE 18.1 22.0----29.87- 73.0 73.8----
2024-04-16 04:18 amSSE 15.0 19.0----29.87- 73.2 73.8----
2024-04-16 04:12 amSSE 14.0 19.0----29.87- 73.2 73.8----
2024-04-16 04:06 amSSE 17.1 24.1----29.86- 73.2 73.8----
2024-04-16 04:00 amSSE 19.0 25.1----29.85-0.13 73.2 73.8----
2024-04-16 03:54 amSSE 20.0 26.0----29.84- 73.2 73.9----
2024-04-16 03:48 amSSE 20.0 27.0----29.83- 73.2 74.1----
2024-04-16 03:42 amSSE 20.0 24.1----29.83- 73.2 74.1----
2024-04-16 03:36 amSSE 19.0 22.9----29.85- 73.2 74.1----
2024-04-16 03:30 amSSE 18.1 22.0----29.87- 73.2 73.9----
2024-04-16 03:24 amSSE 17.1 22.9----29.88- 73.2 73.9----
2024-04-16 03:18 amSSE 19.0 22.9----29.86- 73.2 74.1----
2024-04-16 03:12 amSSE 18.1 21.0----29.87- 73.2 74.3----
2024-04-16 03:06 amSSE 15.9 20.0----29.89- 73.4 74.1----
2024-04-16 03:00 amSSE 15.9 18.1----29.89-0.08 73.2 74.1----
2024-04-16 02:54 amSSE 11.1 15.0----29.91- 73.4 74.3----
2024-04-16 02:48 amSSE 13.0 15.0----29.92- 73.4 74.3----
2024-04-16 02:42 am S 13.0 15.0----29.93- 73.4 74.1----
2024-04-16 02:36 am S 12.0 15.0----29.94- 73.4 74.1----
2024-04-16 02:30 am S 11.1 13.0----29.93- 73.4 74.1----
2024-04-16 02:24 amSSE 12.0 13.0----29.93- 73.4 74.3----
2024-04-16 02:18 amSSE 11.1 14.0----29.93- 73.4 74.3----
2024-04-16 02:12 amSSE 12.0 15.0----29.94- 73.4 74.3----
2024-04-16 02:06 amSSE 11.1 13.0----29.95- 73.4 74.3----
2024-04-16 02:00 am S 12.0 15.0----29.95+0.01 73.6 74.3----
2024-04-16 01:54 am S 13.0 15.0----29.96- 73.6 74.3----
2024-04-16 01:48 am S 11.1 13.0----29.96- 73.6 74.3----
2024-04-16 01:42 am S 11.1 14.0----29.96- 73.6 74.3----
2024-04-16 01:36 am S 11.1 15.0----29.96- 73.6 74.3----
2024-04-16 01:30 am S 12.0 15.0----29.96- 73.6 74.3----
2024-04-16 01:24 am S 11.1 15.0----29.96- 73.6 74.3----
2024-04-16 01:18 am S 12.0 13.0----29.97- 73.6 74.5----
2024-04-16 01:12 am S 9.9 13.0----29.98- 73.6 74.5----
2024-04-16 01:06 am S 9.9 13.0----29.99- 73.8 74.5----
2024-04-16 01:00 am S 13.0 15.0----29.98+0.05 73.6 74.5----
2024-04-16 12:54 am S 12.0 15.0----29.98- 73.6 74.5----
2024-04-16 12:48 am S 11.1 13.0----29.98- 73.6 74.5----
2024-04-16 12:42 am S 11.1 13.0----29.98- 73.6 74.5----
2024-04-16 12:36 am S 8.9 12.0----29.99- 73.6 74.5----
2024-04-16 12:30 am S 11.1 13.0----29.99- 73.6 74.5----
2024-04-16 12:24 am S 9.9 13.0----29.99- 73.6 74.5----
2024-04-16 12:18 am S 8.0 14.0----29.99- 73.6 74.5----
2024-04-16 12:12 am S 11.1 14.0----29.98- 73.4 74.5----
2024-04-16 12:06 am S 8.9 13.0----29.98- 73.4 74.5----
2024-04-16 12:00 am S 9.9 15.0----29.97+0.04 73.6 74.5----
2024-04-15 11:54 pmSSE 11.1 17.1----29.96- 73.4 74.5----
2024-04-15 11:48 pmSSE 13.0 17.1----29.95- 73.4 74.5----
2024-04-15 11:42 pmSSE 13.0 17.1----29.95- 73.4 74.5----
2024-04-15 11:36 pmSSE 11.1 15.9----29.95- 73.4 74.5----
2024-04-15 11:30 pmSSE 13.0 18.1----29.94- 73.4 74.5----
2024-04-15 11:24 pmSSE 14.0 17.1----29.94- 73.2 74.5----
2024-04-15 11:18 pmSSE 13.0 17.1----29.95- 73.4 74.5----
2024-04-15 11:12 pmSSE 14.0 15.9----29.95- 73.4 74.5----
2024-04-15 11:06 pmSSE 13.0 20.0----29.95- 73.6 74.3----
2024-04-15 11:00 pmSSE 15.0 19.0----29.94+0.00 73.4 74.3----
2024-04-15 10:54 pmSSE 15.0 18.1----29.94- 73.4 74.3----
2024-04-15 10:48 pmSSE 14.0 18.1----29.94- 73.4 74.3----
2024-04-15 10:42 pmSSE 13.0 17.1----29.94- 73.4 74.3----
2024-04-15 10:36 pmSSE 15.0 17.1----29.94- 73.4 74.3----
2024-04-15 10:30 pmSSE 15.0 19.0----29.94- 73.4 74.3----
2024-04-15 10:24 pmSSE 15.0 19.0----29.94- 73.4 74.3----
2024-04-15 10:18 pm S 15.0 19.0----29.95- 73.6 74.3----
2024-04-15 10:12 pmSSE 15.9 19.0----29.94- 73.6 74.3----
2024-04-15 10:06 pmSSE 15.0 20.0----29.93- 73.6 74.3----
2024-04-15 10:00 pmSSE 15.9 20.0----29.93+0.00 73.6 74.3----
2024-04-15 09:54 pmSSE 18.1 21.0----29.93- 73.4 74.3----
2024-04-15 09:48 pmSSE 15.9 22.0----29.93- 73.6 74.3----
2024-04-15 09:42 pmSSE 15.9 21.0----29.93- 73.6 74.3----
2024-04-15 09:36 pmSSE 17.1 22.9----29.93- 73.6 74.3----
2024-04-15 09:30 pmSSE 15.9 21.0----29.92-- 74.3----
2024-04-15 09:24 pmSSE 17.1 21.0----29.93-- 74.3----
2024-04-15 09:18 pmSSE 14.0 20.0----29.93- 73.4 74.3----
2024-04-15 09:12 pmSSE 17.1 21.0----29.93- 73.4 74.3----
2024-04-15 09:06 pmSSE 15.9 20.0----29.93- 73.4 74.3----
2024-04-15 09:00 pmSSE 14.0 21.0----29.93-0.02 73.4 74.3----
2024-04-15 08:54 pmSSE 14.0 20.0----29.93- 73.4 74.3----
2024-04-15 08:48 pmSSE 15.0 19.0----29.93- 73.4 74.3----
2024-04-15 08:42 pmSSE 14.0 19.0----29.93- 73.2 74.3----
2024-04-15 08:36 pmSSE 15.9 19.0----29.93- 73.2 74.3----
2024-04-15 08:30 pmSSE 13.0 19.0----29.93- 73.4 74.3----
2024-04-15 08:24 pmSSE 14.0 18.1----29.93- 73.2 74.3----
2024-04-15 08:18 pmSSE 15.0 18.1----29.94- 73.4 74.3----
2024-04-15 08:12 pmSSE 14.0 19.0----29.93- 73.4 74.3----
2024-04-15 08:06 pmSSE 15.9 20.0----29.93- 73.4 74.5----
2024-04-15 08:00 pmSSE 13.0 19.0----29.93-0.03- 74.3----
2024-04-15 07:54 pmSSE 15.9 19.0----29.93-- 74.3----
2024-04-15 07:48 pmSSE 15.0 19.0----29.93- 73.2 74.3----
2024-04-15 07:42 pmSSE 15.0 18.1----29.93- 73.4 74.3----
2024-04-15 07:36 pmSSE 13.0 18.1----29.93- 73.4 74.3----
2024-04-15 07:30 pmSSE 14.0 19.0----29.93- 73.4 74.3----
2024-04-15 07:24 pmSSE 15.0 19.0----29.93- 73.4 74.3----
2024-04-15 07:18 pmSSE 15.0 18.1----29.93-- 74.3----
2024-04-15 07:12 pmSSE 15.0 18.1----29.93-- 74.3----
2024-04-15 07:06 pmSSE 14.0 18.1----29.93-- 74.3----
2024-04-15 07:00 pmSSE 12.0 17.1----29.94-0.03 73.6 74.3----
2024-04-15 06:54 pmSSE 13.0 18.1----29.94- 73.4 74.3----
2024-04-15 06:48 pmSSE 14.0 17.1----29.94- 73.6 74.3----
2024-04-15 06:42 pmSSE 14.0 17.1----29.94- 73.4 74.3----
2024-04-15 06:36 pmSSE 13.0 17.1----29.95- 73.4 74.3----
2024-04-15 06:30 pmSSE 13.0 15.9----29.95- 73.4 74.3----
2024-04-15 06:24 pmSSE 14.0 19.0----29.95- 73.6 74.3----
2024-04-15 06:18 pmSSE 12.0 18.1----29.95- 73.6 74.3----
2024-04-15 06:00 pmSSE 13.0 18.1----29.95-0.05 73.9 74.5----
2024-04-15 05:54 pmSSE 15.0 17.1----29.95- 73.8 74.5----
2024-04-15 05:48 pmSSE 12.0 15.0----29.95- 73.8 74.5----
2024-04-15 05:42 pmSSE 12.0 15.9----29.95- 73.8 74.5----
2024-04-15 05:36 pmSSE 13.0 15.0----29.95- 73.6 74.3----
2024-04-15 05:30 pmSSE 13.0 15.9----29.95-- 74.3----
2024-04-15 05:24 pmSSE 14.0 17.1----29.95-- 74.3----
2024-04-15 05:18 pmSSE 12.0 15.9----29.96- 74.3 74.3----
2024-04-15 05:12 pmSSE 12.0 15.9----29.95- 74.1 74.3----
2024-04-15 05:06 pmSSE 12.0 15.0----29.96- 74.3 74.3----
2024-04-15 05:00 pmSSE 12.0 15.9----29.96-0.05 74.3 74.3----
2024-04-15 04:54 pmSSE 12.0 14.0----29.96- 74.1 74.3----
2024-04-15 04:48 pmSSE 12.0 15.9----29.96- 74.5 74.3----
2024-04-15 04:42 pmSSE 13.0 15.0----29.96- 73.9 74.3----
2024-04-15 04:36 pmSSE 12.0 15.0----29.96- 74.1 74.3----
2024-04-15 04:30 pmSSE 11.1 15.0----29.96- 74.3 74.3----
2024-04-15 04:24 pmSSE 12.0 15.0----29.96- 74.3 74.3----
2024-04-15 04:18 pmSSE 13.0 15.9------ 74.3 74.3----
2024-04-15 04:12 pmSSE 12.0 15.0------ 74.3 74.3----
2024-04-15 04:06 pmSSE 12.0 14.0------ 74.5 74.3----
2024-04-15 04:00 pmSSE 12.0 15.9----29.97-0.04 73.9 74.5----
2024-04-15 03:54 pmSSE 11.1 15.9----29.97- 74.7 74.7----
2024-04-15 03:48 pmSSE 12.0 15.9----29.97- 73.9 74.7----
2024-04-15 03:42 pmSSE 12.0 15.0----29.98- 74.3 74.3----
2024-04-15 03:36 pmSSE 11.1 15.0----29.98- 74.5 74.5----
2024-04-15 03:30 pmSSE 12.0 14.0----29.98- 74.3 74.5----
2024-04-15 03:24 pmSSE 11.1 14.0----29.99- 73.9 74.5----
2024-04-15 03:18 pmSSE 9.9 13.0----29.99- 74.3 74.5----
2024-04-15 03:12 pmSSE 9.9 13.0----29.99- 74.7 74.5----
2024-04-15 03:06 pmSSE 11.1 13.0----29.99- 73.9 74.5----
2024-04-15 03:00 pmSSE 11.1 13.0----29.99-0.03 73.9 74.1----
2024-04-15 02:54 pmSSE 9.9 13.0----29.99- 74.5 74.1----